TIANWANG 1A (TW-1A)
1 40928U 15051D   19301.82504684  .00004147  00000-0  10103-3 0  9990
2 40928  97.1353 330.1749 0009638 321.6479 123.1241 15.41423158229526
LAPAN A2
1 40931U 15052B   19298.08603472 -.00000769  00000-0 -19656-3 0  9993
2 40931   5.9852 220.8114 0010501 166.6827 193.4547 14.76605714220276
LQSAT
1 40958U 15057A   19300.79644109  .00000044  00000-0  14449-4 0  9991
2 40958  97.8856   6.3603 0018294 176.2633 183.8716 14.73093553218107
CHUBUSAT 2
1 41338U 16012B   19301.63450049  .00000417  00000-0  25747-4 0  9995
2 41338  31.0043  26.2304 0013909 330.0483  29.9355 15.00199872202742
CHUBUSAT 3
1 41339U 16012C   19301.65521974  .00000377  00000-0  22527-4 0  9992
2 41339  31.0113  24.0211 0013619 336.8875  23.1147 15.00371491202745
OUFTI-1
1 41458U 16025C   19300.81674503  .00002264  00000-0  11857-3 0  9992
2 41458  98.1006  34.3318 0164358 276.1570  82.0952 15.06112978192306
E-STAR-2
1 41459U 16025D   19301.72905473  .00002195  00000-0  11584-3 0  9997
2 41459  98.1010  34.8753 0165640 274.4496  83.7850 15.05740849192413
AAUSAT 4
1 41460U 16025E   19301.80128087  .00003494  00000-0  17714-3 0  9990
2 41460  98.0961  36.5372 0155775 265.7426  92.5981 15.07741624192573
NUSAT 1
1 41557U 16033B   19301.79691598  .00001868  00000-0  72099-4 0  9997
2 41557  97.4148  28.5206 0013620 184.2104 175.9023 15.27480598190255
BEESAT 4
1 41619U 16040W   19301.16062101  .00001939  00000-0  84347-4 0  9995
2 41619  97.3531   0.8483 0009617 282.9456  77.0707 15.23406082173878
PRATHAM
1 41783U 16059A   19301.73520516  .00000087  00000-0  26066-4 0  9996
2 41783  98.0522 358.2949 0032805 330.7312  29.2052 14.63016684164851
ALSAT 1N
1 41789U 16059G   19301.67941480  .00000075  00000-0  23226-4 0  9994
2 41789  98.0557   0.5267 0027424 319.9366  39.9831 14.64270822164966
NAYIF 1
1 42017U 17008BX  19301.13509757  .00002419  00000-0  97318-4 0  9999
2 42017  97.3902   6.7995 0007816  72.1839 288.0252 15.25834114149964
MAX VALIER SAT
1 42778U 17036P   19301.14200615  .00001360  00000-0  62049-4 0  9993
2 42778  97.3395 355.8155 0013870 119.6302 240.6318 15.22209536130237
